Wilmington, DE

5:51 AM EDT on May 25, 2017 (GMT -0400)
New Castle County

Weather History for KILG - November, 2012

Change the Weather History Date:

Sunday, November 4, 2012

  Actual Average Record
Temperature  
Mean Temperature 42 °F 50 °F  
Max Temperature 47 °F 60 °F 79 °F (1974)
Min Temperature 36 °F 41 °F 24 °F (1951)
Degree Days  
Heating Degree Days 23 15  
Month to date heating degree days 77 58  
Since 1 July heating degree days 352 402  
Cooling Degree Days 0 0  
Month to date cooling degree days 0 0  
Year to date cooling degree days 1387 1145  
Moisture  
Dew Point 29 °F    
Average Humidity 62    
Maximum Humidity 70    
Minimum Humidity 53    
Precipitation  
Precipitation 0.00 in 0.10 in 2.86 in (1947)
Month to date precipitation T 0.41  
Year to date precipitation 31.41 36.91  
Snow  
Snow 0.00 in 0.00 in 0.00 in (1894)
Month to date snowfall 0.0 0.0  
Since 1 July snowfall 0.0 0.0  
Since 1 September snowfall 0.0 0.0  
Snow Depth 0.00 in    
Sea Level Pressure  
Sea Level Pressure 30.04 in    
Wind  
Wind Speed 10 mph (NW)    
Max Wind Speed 20 mph    
Max Gust Speed 24 mph    
Visibility 10 miles    
Events      
T = Trace of Precipitation, MM = Missing Value Source: NWS Daily Summary

Daily Weather History Graph

Daily Weather History Graph

Search for Another Location

Airport or City:

Trip Planner

Search our weather history database for the weather conditions in past years. The results will help you decide how hot, cold, wet, or windy it might be!

Date:

Astronomy

Nov. 04, 2012 Rise Set
Actual Time 6:34 AM EST 4:56 PM EST
Civil Twilight 6:06 AM EST 5:24 PM EST
Nautical Twilight 5:34 AM EST 5:56 PM EST
Astronomical Twilight 5:03 AM EST 6:28 PM EST
Moon 9:32 PM EST (11/4) 11:16 AM EST (11/4)
Length of Visible Light 11h 18m
Length of Day
10h 21m
Waning Gibbous, 72% of the Moon is Illuminated
Nov 4
Waning Gibbous
Nov 6
Last Quarter
Nov 13
New
Nov 20
First Quarter
Nov 28
Full

Hourly Weather History & Observations

Time (EST) Temp. Windchill Dew Point Humidity Pressure Visibility Wind Dir Wind Speed Gust Speed Precip Events Conditions
12:51 AM 44.1 °F 40.1 °F 30.0 °F 58% 30.04 in 10.0 mi NW 6.9 mph - N/A   Overcast
1:51 AM 44.1 °F 40.8 °F 30.0 °F 58% 30.05 in 10.0 mi WNW 5.8 mph - N/A   Overcast
1:51 AM 43.0 °F 38.8 °F 28.9 °F 58% 30.04 in 10.0 mi NW 6.9 mph - N/A   Overcast
2:51 AM 39.9 °F 35.1 °F 28.9 °F 65% 30.03 in 10.0 mi WNW 6.9 mph - N/A   Scattered Clouds
3:51 AM 37.9 °F 32.7 °F 28.0 °F 68% 30.04 in 10.0 mi NW 6.9 mph - N/A   Clear
4:51 AM 37.9 °F 32.7 °F 28.0 °F 68% 30.04 in 10.0 mi WNW 6.9 mph - N/A   Clear
5:51 AM 37.9 °F 34.4 °F 28.0 °F 68% 30.03 in 10.0 mi WNW 4.6 mph - N/A   Clear
6:51 AM 37.0 °F 33.3 °F 28.9 °F 73% 30.05 in 10.0 mi West 4.6 mph - N/A   Clear
7:51 AM 42.8 °F 39.3 °F 32.0 °F 66% 30.07 in 10.0 mi NW 5.8 mph - N/A   Overcast
8:51 AM 43.0 °F 39.5 °F 30.9 °F 62% 30.06 in 10.0 mi NNW 5.8 mph - N/A   Overcast
9:51 AM 44.1 °F 38.1 °F 28.9 °F 55% 30.06 in 10.0 mi NW 11.5 mph - N/A   Overcast
10:51 AM 44.6 °F 38.1 °F 30.2 °F 57% 30.05 in 10.0 mi NW 13.8 mph - N/A   Overcast
11:51 AM 45.0 °F 38.5 °F 28.9 °F 53% 30.04 in 10.0 mi NW 13.8 mph - N/A   Overcast
12:51 PM 46.0 °F 39.6 °F 30.0 °F 54% 30.03 in 10.0 mi WNW 15.0 mph 20.7 mph N/A   Overcast
1:51 PM 46.0 °F 39.3 °F 30.0 °F 54% 30.02 in 10.0 mi WNW 16.1 mph - N/A   Overcast
2:51 PM 45.0 °F 38.2 °F 28.9 °F 53% 30.02 in 10.0 mi NW 15.0 mph - N/A   Overcast
3:51 PM 44.1 °F 36.8 °F 28.9 °F 55% 30.03 in 10.0 mi NW 16.1 mph - N/A   Overcast
4:51 PM 43.0 °F 36.0 °F 28.9 °F 58% 30.04 in 10.0 mi NW 13.8 mph - N/A   Overcast
5:51 PM 42.1 °F 35.2 °F 28.0 °F 58% 30.04 in 10.0 mi NW 12.7 mph - N/A   Overcast
6:51 PM 42.1 °F 36.1 °F 28.0 °F 58% 30.05 in 10.0 mi NW 10.4 mph - N/A   Overcast
7:51 PM 42.1 °F 36.6 °F 28.0 °F 58% 30.05 in 10.0 mi NW 9.2 mph - N/A   Overcast
8:51 PM 42.1 °F 36.1 °F 28.0 °F 58% 30.05 in 10.0 mi NW 10.4 mph - N/A   Overcast
9:51 PM 42.1 °F 36.6 °F 28.0 °F 58% 30.04 in 10.0 mi NW 9.2 mph - N/A   Overcast
10:51 PM 41.0 °F 35.8 °F 28.0 °F 60% 30.04 in 10.0 mi NW 8.1 mph - N/A   Overcast